Simultaneous Nadir Overpasses (SNOs) Predictions

Prediction of SNOs between AQUA and NPP Satellite Orbit:

Table of predicted SNOs for the next 14.0 days since TLE Epoch: 11/22/2014
Index Date (AQUA) Time (AQUA) Lat,Lon (AQUA) SZA (AQUA ) Date (NPP) Time (NPP) Lat,Lon (NPP) SZA (NPP ) Distance(km) Time Diff (sec)
1 11/24/2014 09:16:01 -51.96, 75.49 42.84 11/24/2014 09:16:00 -51.96, 75.49 42.83 0.47 1
2 11/24/2014 10:02:29 62.24,-110.86 129.08 11/24/2014 10:03:41 62.24,-110.86 128.96 0.39 72
3 11/27/2014 00:44:38 46.02, 21.32 141.84 11/27/2014 00:43:48 46.00, 21.38 141.94 4.71 50
4 11/27/2014 01:31:16 -56.13,-166.54 45.46 11/27/2014 01:31:39 -56.12,-166.56 45.49 1.33 23
5 11/27/2014 02:02:48 57.19, 160.34 79.02 11/27/2014 02:04:00 56.93, 158.80 78.61 97.83 72
6 11/29/2014 17:00:06 49.46, 138.57 139.99 11/29/2014 16:59:41 49.46, 138.57 140.05 0.29 25
7 11/29/2014 17:46:38 -59.85, -48.42 47.90 11/29/2014 17:47:26 -59.84, -48.44 47.97 1.54 48
8 12/02/2014 08:28:05 -46.06, 85.48 37.23 12/02/2014 08:27:04 -45.30, 85.31 36.62 85.05 61
9 12/02/2014 09:14:57 55.01,-102.97 136.39 12/02/2014 09:14:57 55.01,-102.96 136.39 0.67 0
10 12/02/2014 10:02:00 -63.47, 70.15 50.43 12/02/2014 10:03:14 -63.46, 70.14 50.53 1.93 74
11 12/05/2014 00:44:11 -47.12,-158.22 37.50 12/05/2014 00:43:25 -47.12,-158.21 37.39 0.83 46
12 12/05/2014 01:30:23 58.40, 14.83 134.18 12/05/2014 01:30:50 58.39, 14.81 134.15 1.46 27
